DL2ARH-7 Weather Reports


time (UTC)temp
C
wind
direction
speed
KPH
gust
KPH
rain 1hr
cm
rain 24hr
cm
rain mn
cm
humidity
%
barometer
mb
20260505181334 15 90 0.0 0.0 0.00 0.00 0.00 81 1005.8
20260505181229 15 60 0.0 0.0 0.00 0.00 0.00 82 1005.7
20260505181122 15 75 0.0 0.0 0.00 0.00 0.00 82 1005.7
20260505181015 15 75 0.0 0.0 0.00 0.00 0.00 82 1005.8
20260505180803 16 50 0.0 0.0 0.00 0.00 0.00 81 1005.8
20260505180656 16 45 0.0 0.0 0.00 0.00 0.00 81 1005.9
20260505180549 16 65 0.0 0.0 0.00 0.00 0.00 81 1005.9
20260505180446 16 75 0.0 0.0 0.00 0.00 0.00 81 1005.9
20260505180336 16 75 0.0 0.0 0.00 0.00 0.00 81 1005.8
20260505180229 15 75 0.0 0.0 0.00 0.00 0.00 81 1005.9
20260505180123 16 90 0.0 0.0 0.00 0.00 0.00 81 1006.0
20260505180017 16 90 0.0 0.0 0.00 0.00 0.00 81 1005.8
20260505175914 16 75 0.0 0.0 0.00 0.00 0.00 81 1005.9
20260505175656 16 50 0.0 0.0 0.00 0.00 0.00 81 1006.0
20260505175550 16 90 0.0 0.0 0.00 0.00 0.00 81 1005.9
20260505175444 16 60 0.0 0.0 0.00 0.00 0.00 81 1005.9
20260505175338 16 75 0.0 0.0 0.00 0.00 0.00 81 1005.9
20260505175232 16 90 0.0 0.0 0.00 0.00 0.00 81 1005.8
20260505175125 16 75 0.0 0.0 0.00 0.00 0.00 81 1005.9
20260505175018 16 80 0.0 0.0 0.00 0.00 0.00 81 1005.9
20260505174807 16 55 0.0 0.0 0.00 0.00 0.00 80 1005.9
20260505174659 16 75 0.0 0.0 0.00 0.00 0.00 80 1006.0
20260505174446 16 60 0.0 0.0 0.00 0.00 0.00 80 1006.0
20260505174339 16 100 0.0 0.0 0.00 0.00 0.00 80 1006.1
20260505174232 16 65 0.0 0.0 0.00 0.00 0.00 80 1006.2
20260505174020 16 75 0.0 0.0 0.00 0.00 0.00 80 1006.1
20260505173913 16 50 0.0 0.0 0.00 0.00 0.00 80 1006.1
20260505173807 16 60 0.0 0.0 0.00 0.00 0.00 80 1006.2
20260505173553 16 70 0.0 0.0 0.00 0.00 0.00 79 1006.2
20260505173234 16 60 0.0 0.0 0.00 0.00 0.00 79 1006.2
20260505173128 16 55 0.0 0.0 0.00 0.00 0.00 79 1006.3
20260505173021 16 90 0.0 0.0 0.00 0.00 0.00 79 1006.2
20260505172914 16 60 0.0 0.0 0.00 0.00 0.00 79 1006.1
20260505172701 16 70 0.0 0.0 0.00 0.00 0.00 79 1006.2
20260505172555 16 100 0.0 0.0 0.00 0.00 0.00 78 1006.2
20260505172341 16 215 0.0 0.0 0.00 0.00 0.00 78 1006.2
20260505172235 16 60 0.0 0.0 0.00 0.00 0.00 78 1006.2
20260505172129 16 70 0.0 0.0 0.00 0.00 0.00 78 1006.4
20260505171917 16 90 0.0 0.0 0.00 0.00 0.00 77 1006.3
20260505171810 16 50 0.0 0.0 0.00 0.00 0.00 77 1006.2
20260505171706 16 90 0.0 0.0 0.00 0.00 0.00 77 1006.3
20260505171556 16 120 0.0 0.0 0.00 0.00 0.00 76 1006.3
20260505171450 16 155 0.0 0.0 0.00 0.00 0.00 76 1006.2
20260505171346 16 60 0.0 0.0 0.00 0.00 0.00 76 1006.4
20260505171237 16 75 0.0 0.0 0.00 0.00 0.00 76 1006.2
20260505171130 16 55 0.0 0.0 0.00 0.00 0.00 76 1006.2
20260505170811 16 70 0.0 0.0 0.00 0.00 0.00 75 1006.5
20260505170705 16 75 0.0 0.0 0.00 0.00 0.00 75 1006.4
20260505170559 16 95 0.0 0.0 0.00 0.00 0.00 75 1006.4
20260505170451 16 55 0.0 0.0 0.00 0.00 0.00 75 1006.4
20260505170344 16 80 0.0 0.0 0.00 0.00 0.00 75 1006.4
20260505170238 16 100 0.0 0.0 0.00 0.00 0.00 74 1006.3
20260505170132 16 55 0.0 0.0 0.00 0.00 0.00 75 1006.3
20260505170025 45 50 0.0 0.0 0.00 0.00 0.00 75 1006.4
20260505165920 46 75 0.0 0.0 0.00 0.00 0.00 83 1006.4
20260505165706 16 75 0.0 0.0 0.00 0.00 0.00 73 1006.5
20260505165600 16 100 0.0 0.0 0.00 0.00 0.00 73 1006.4
20260505165452 16 105 0.0 0.0 0.00 0.00 0.00 81 1006.5
20260505165347 16 60 0.0 0.0 0.00 0.00 0.00 73 1006.7
20260505165239 17 75 0.0 0.0 0.00 0.00 0.00 73 1006.6
20260505165133 17 100 0.0 0.0 0.00 0.00 0.00 73 1006.7
20260505164922 16 90 0.0 0.0 0.00 0.00 0.00 72 1006.7
20260505164814 16 75 0.0 0.0 0.00 0.00 0.00 72 1006.6
20260505164712 16 105 0.0 0.0 0.00 0.00 0.00 72 1006.7
20260505164600 17 130 0.0 0.0 0.00 0.00 0.00 72 1006.7
20260505164455 17 120 0.0 0.0 0.00 0.00 0.00 71 1006.7
20260505164348 17 115 0.0 0.0 0.00 0.00 0.00 71 1006.7
20260505164241 17 80 0.0 0.0 0.00 0.00 0.00 71 1006.6
20260505164134 16 45 0.0 0.0 0.00 0.00 0.00 71 1006.7
20260505164028 17 85 0.0 0.0 0.00 0.00 0.00 71 1006.7
20260505163923 17 60 0.0 0.0 0.00 0.00 0.00 71 1006.7
20260505163816 17 90 0.0 0.0 0.00 0.00 0.00 70 1006.7
20260505163708 17 80 0.0 0.0 0.00 0.00 0.00 70 1006.8
20260505163602 17 140 0.0 0.0 0.00 0.00 0.00 70 1006.6
20260505163455 17 80 0.0 0.0 0.00 0.00 0.00 70 1006.6
20260505163350 17 60 0.0 0.0 0.00 0.00 0.00 70 1006.7
20260505163242 17 90 0.0 0.0 0.00 0.00 0.00 70 1006.6
20260505163139 17 55 0.0 0.0 0.00 0.00 0.00 70 1006.8
20260505163030 17 75 0.0 0.0 0.00 0.00 0.00 70 1006.7
20260505162923 17 60 0.0 0.0 0.00 0.00 0.00 70 1006.7
20260505162710 17 65 0.0 0.0 0.00 0.00 0.00 69 1006.7
20260505162604 17 50 0.0 0.0 0.00 0.00 0.00 69 1006.6
20260505162458 17 80 0.0 0.0 0.00 0.00 0.00 69 1006.6
20260505162244 17 70 0.0 0.0 0.00 0.00 0.00 69 1006.8
20260505162137 17 65 0.0 0.0 0.00 0.00 0.00 69 1006.6
20260505162031 17 70 0.0 0.0 0.00 0.00 0.00 68 1006.6
20260505161925 17 70 0.0 0.0 0.00 0.00 0.00 68 1006.7
20260505161818 17 75 0.0 0.0 0.00 0.00 0.00 68 1006.7
20260505161606 17 55 0.0 0.0 0.00 0.00 0.00 68 1006.8
20260505161458 17 65 0.0 0.0 0.00 0.00 0.00 68 1006.8
20260505161352 17 60 0.0 0.0 0.00 0.00 0.00 67 1006.7
20260505161246 17 90 0.0 0.0 0.00 0.00 0.00 67 1006.6
20260505161139 17 50 0.0 0.0 0.00 0.00 0.00 67 1006.8
20260505161032 17 55 0.0 0.0 0.00 0.00 0.00 67 1006.8
20260505160926 17 95 0.0 0.0 0.00 0.00 0.00 67 1006.7
20260505160821 17 60 0.0 0.0 0.00 0.00 0.00 67 1006.8
20260505160713 17 90 0.0 0.0 0.00 0.00 0.00 66 1006.7
20260505160606 17 75 0.0 0.0 0.00 0.00 0.00 66 1006.7
20260505160501 17 70 0.0 0.0 0.00 0.00 0.00 66 1006.7
20260505160248 17 65 0.0 0.0 0.00 0.00 0.00 66 1006.7
20260505160141 17 100 0.0 0.0 0.00 0.00 0.00 66 1006.8
20260505153359 17 90 0.0 0.0 0.00 0.00 0.00 65 1006.8
20260505153252 17 75 0.0 0.0 0.00 0.00 0.00 65 1006.8
20260505153146 17 55 0.0 0.0 0.00 0.00 0.00 65 1006.9
20260505153039 17 100 0.0 0.0 0.00 0.00 0.00 65 1006.9
20260505152932 17 60 0.0 0.0 0.00 0.00 0.00 65 1006.9
20260505152825 17 70 0.0 0.0 0.00 0.00 0.00 65 1006.9
20260505152720 17 50 0.0 0.0 0.00 0.00 0.00 65 1006.9
20260505152612 17 50 0.0 0.0 0.00 0.00 0.00 65 1007.1
20260505152508 18 65 0.0 0.0 0.00 0.00 0.00 65 1007.0
20260505152359 18 70 0.0 0.0 0.00 0.00 0.00 65 1007.0
20260505152253 18 80 0.0 0.0 0.00 0.00 0.00 65 1006.8
20260505152146 17 95 0.0 0.0 0.00 0.00 0.00 65 1007.0
20260505152039 18 50 0.0 0.0 0.00 0.00 0.00 65 1007.1
20260505151933 17 55 0.0 0.0 0.00 0.00 0.00 65 1006.9
20260505151720 18 85 0.0 0.0 0.00 0.00 0.00 65 1006.9
20260505151508 17 100 0.0 0.0 0.00 0.00 0.00 65 1007.0
20260505151401 17 65 0.0 0.0 0.00 0.00 0.00 65 1007.0
20260505151254 17 60 0.0 0.0 0.00 0.00 0.00 65 1007.0
20260505151148 17 70 0.0 0.0 0.00 0.00 0.00 65 1006.9
20260505151041 17 75 0.0 0.0 0.00 0.00 0.00 65 1007.1
20260505150935 17 60 0.0 0.0 0.00 0.00 0.00 65 1006.9
20260505150828 17 70 0.0 0.0 0.00 0.00 0.00 65 1007.1
20260505150723 17 55 3.2 0.0 0.00 0.00 0.00 65 1007.0
20260505150615 17 60 0.0 0.0 0.00 0.00 0.00 65 1007.0
20260505150509 17 80 0.0 0.0 0.00 0.00 0.00 65 1007.1
20260505150403 17 50 0.0 0.0 0.00 0.00 0.00 65 1007.0
20260505150256 17 50 0.0 0.0 0.00 0.00 0.00 65 1007.0
20260505150149 17 45 3.2 0.0 0.00 0.00 0.00 65 1007.1
20260505140624 17 75 0.0 0.0 0.00 0.00 0.00 64 1007.7
20260505140518 17 95 0.0 0.0 0.00 0.00 0.00 64 1007.7
20260505140304 17 45 0.0 0.0 0.00 0.00 0.00 64 1007.8
20260505140159 17 45 0.0 0.0 0.00 0.00 0.00 64 1007.7
20260505130207 18 95 0.0 0.0 0.00 0.00 0.00 58 1008.2
20260505124956 18 55 0.0 0.0 0.00 0.00 0.00 56 1008.2
20260505124851 18 50 0.0 0.0 0.00 0.00 0.00 55 1008.1
20260505124636 18 60 0.0 0.0 0.00 0.00 0.00 55 1008.2
20260505124530 18 75 0.0 0.0 0.00 0.00 0.00 55 1008.2
20260505124316 18 90 0.0 0.0 0.00 0.00 0.00 57 1008.3
20260505124210 18 55 0.0 0.0 0.00 0.00 0.00 57 1008.3
20260505124103 18 75 0.0 0.0 0.00 0.00 0.00 57 1008.3
20260505123958 18 80 0.0 0.0 0.00 0.00 0.00 57 1008.2
20260505123745 18 85 0.0 0.0 0.00 0.00 0.00 57 1008.3
20260505123640 18 60 0.0 0.0 0.00 0.00 0.00 57 1008.2
20260505123531 18 70 0.0 0.0 0.00 0.00 0.00 57 1008.2
20260505123426 18 50 0.0 0.0 0.00 0.00 0.00 58 1008.3
20260505123319 18 70 0.0 0.0 0.00 0.00 0.00 58 1008.3
20260505123211 18 85 0.0 0.0 0.00 0.00 0.00 58 1008.2
20260505123105 18 60 0.0 0.0 0.00 0.00 0.00 58 1008.4
20260505123001 18 95 0.0 0.0 0.00 0.00 0.00 58 1008.3
20260505122852 18 70 0.0 0.0 0.00 0.00 0.00 58 1008.4
20260505122746 18 50 22.5 0.0 0.00 0.00 0.00 58 1008.6
20260505122639 18 55 0.0 0.0 0.00 0.00 0.00 57 1008.2
20260505122533 18 50 0.0 0.0 0.00 0.00 0.00 57 1008.4
20260505122426 19 75 0.0 0.0 0.00 0.00 0.00 58 1008.3
20260505122319 18 85 0.0 0.0 0.00 0.00 0.00 58 1008.4
20260505122213 18 65 0.0 0.0 0.00 0.00 0.00 57 1008.4
20260505122106 18 95 0.0 0.0 0.00 0.00 0.00 58 1008.3
20260505122003 18 75 0.0 0.0 0.00 0.00 0.00 58 1008.5
20260505121854 18 190 0.0 0.0 0.00 0.00 0.00 58 1008.4
20260505121747 18 60 0.0 0.0 0.00 0.00 0.00 57 1008.5
20260505121643 18 100 0.0 0.0 0.00 0.00 0.00 57 1008.5
20260505121534 18 60 0.0 0.0 0.00 0.00 0.00 58 1008.4
20260505121427 18 60 0.0 0.0 0.00 0.00 0.00 57 1008.5
20260505121321 18 95 0.0 0.0 0.00 0.00 0.00 58 1008.4
20260505121214 18 85 0.0 0.0 0.00 0.00 0.00 58 1008.5
20260505121108 18 90 0.0 0.0 0.00 0.00 0.00 59 1008.6
20260505121004 18 50 0.0 0.0 0.00 0.00 0.00 59 1008.3
20260505120855 18 50 0.0 0.0 0.00 0.00 0.00 59 1008.4
20260505120748 18 80 0.0 0.0 0.00 0.00 0.00 59 1008.4
20260505120642 18 90 0.0 0.0 0.00 0.00 0.00 58 1008.6
20260505120538 18 75 0.0 0.0 0.00 0.00 0.00 57 1008.5
20260505120429 18 55 0.0 0.0 0.00 0.00 0.00 56 1008.6
20260505120217 18 85 0.0 0.0 0.00 0.00 0.00 56 1008.7
20260505120109 18 65 0.0 0.0 0.00 0.00 0.00 56 1008.6
20260505120004 18 75 9.7 0.0 0.00 0.00 0.00 56 1008.7
20260505115856 18 120 0.0 0.0 0.00 0.00 0.00 56 1008.7
20260505115750 18 200 0.0 0.0 0.00 0.00 0.00 55 1008.6
20260505115645 18 50 0.0 0.0 0.00 0.00 0.00 55 1008.6
20260505115538 18 50 12.9 0.0 0.00 0.00 0.00 55 1008.6
20260505115430 18 90 0.0 0.0 0.00 0.00 0.00 55 1008.6
20260505115324 18 70 0.0 0.0 0.00 0.00 0.00 56 1008.7
20260505115217 18 60 0.0 0.0 0.00 0.00 0.00 56 1008.6
20260505115111 18 80 0.0 0.0 0.00 0.00 0.00 56 1008.7
20260505115005 18 75 0.0 0.0 0.00 0.00 0.00 56 1008.6
20260505114751 18 70 0.0 0.0 0.00 0.00 0.00 58 1008.6
20260505114645 18 70 0.0 0.0 0.00 0.00 0.00 59 1008.6
20260505114538 18 60 0.0 0.0 0.00 0.00 0.00 59 1008.6
20260505114432 18 75 0.0 0.0 0.00 0.00 0.00 59 1008.6
20260505114325 -5 75 0.0 0.0 0.00 0.00 0.00 59 1008.7
20260505114220 18 100 0.0 0.0 0.00 0.00 0.00 59 1008.7
20260505114112 18 45 0.0 0.0 0.00 0.00 0.00 59 1008.6
20260505114005 18 75 0.0 0.0 0.00 0.00 0.00 59 1008.7
20260505113859 18 45 25.7 0.0 0.00 0.00 0.00 59 1008.7
20260505113753 18 80 0.0 0.0 0.00 0.00 0.00 59 1008.6
20260505113648 18 45 0.0 0.0 0.00 0.00 0.00 58 1008.6
20260505113540 18 85 0.0 0.0 0.00 0.00 0.00 58 1008.7
20260505113434 18 60 0.0 0.0 0.00 0.00 0.00 58 1008.6
20260505113220 18 65 0.0 0.0 0.00 0.00 0.00 59 1008.6
20260505113114 18 90 0.0 0.0 0.00 0.00 0.00 59 1008.6
20260505113008 18 45 0.0 0.0 0.00 0.00 0.00 59 1008.7
20260505112902 18 75 0.0 0.0 0.00 0.00 0.00 59 1008.6
20260505112754 18 50 0.0 0.0 0.00 0.00 0.00 59 1008.7
20260505112648 18 90 0.0 0.0 0.00 0.00 0.00 59 1008.8
20260505112435 -5 55 0.0 0.0 0.00 0.00 0.00 59 1008.7
20260505112328 18 100 0.0 0.0 0.00 0.00 0.00 59 1008.7
20260505112222 18 110 0.0 0.0 0.00 0.00 0.00 60 1008.8
20260505112115 18 120 0.0 0.0 0.00 0.00 0.00 60 1008.7
20260505112008 18 70 0.0 0.0 0.00 0.00 0.00 60 1008.8
20260505111904 17 85 0.0 0.0 0.00 0.00 0.00 60 1008.6
20260505111756 17 65 0.0 0.0 0.00 0.00 0.00 60 1008.7
20260505111650 18 75 0.0 0.0 0.00 0.00 0.00 61 1008.8
20260505111543 17 75 0.0 0.0 0.00 0.00 0.00 62 1008.7
20260505111440 18 90 0.0 0.0 0.00 0.00 0.00 63 1008.8
20260505111329 18 95 0.0 0.0 0.00 0.00 0.00 64 1008.7
20260505111116 18 75 0.0 0.0 0.00 0.00 0.00 64 1008.8
20260505111011 18 75 0.0 0.0 0.00 0.00 0.00 64 1008.7
20260505110906 18 90 0.0 0.0 0.00 0.00 0.00 64 1008.8
20260505110757 18 110 0.0 0.0 0.00 0.00 0.00 64 1008.7
20260505110651 18 85 0.0 0.0 0.00 0.00 0.00 64 1008.8
20260505110544 18 100 0.0 0.0 0.00 0.00 0.00 64 1008.9
20260505110225 18 145 0.0 0.0 0.00 0.00 0.00 66 1008.8
20260505102124 16 60 0.0 0.0 0.00 0.00 0.00 85 1009.2
20260505102018 16 90 0.0 0.0 0.00 0.00 0.00 85 1009.2
20260505101911 16 55 0.0 0.0 0.00 0.00 0.00 85 1009.2
20260505101804 16 75 0.0 0.0 0.00 0.00 0.00 86 1009.3
20260505101700 16 75 0.0 0.0 0.00 0.00 0.00 86 1009.2
20260505101552 16 65 0.0 0.0 0.00 0.00 0.00 86 1009.2
20260505101445 16 70 0.0 0.0 0.00 0.00 0.00 86 1009.2
20260505101339 15 90 0.0 0.0 0.00 0.00 0.00 87 1009.3
20260505101232 15 65 0.0 0.0 0.00 0.00 0.00 86 1009.3
20260505101125 15 55 0.0 0.0 0.00 0.00 0.00 87 1009.3
20260505101020 15 70 0.0 0.0 0.00 0.00 0.00 87 1009.3
20260505100915 15 65 0.0 0.0 0.00 0.00 0.00 87 1009.3
20260505100553 15 70 0.0 0.0 0.00 0.00 0.00 88 1009.4
20260505100341 15 80 0.0 0.0 0.00 0.00 0.00 88 1009.4
20260505100233 15 75 0.0 0.0 0.00 0.00 0.00 88 1009.4
20260505100020 15 55 0.0 0.0 0.00 0.00 0.00 88 1009.3
20260505095914 15 75 0.0 0.0 0.00 0.00 0.00 88 1009.4
20260505095808 15 85 0.0 0.0 0.00 0.00 0.00 89 1009.4
20260505095555 15 90 0.0 0.0 0.00 0.00 0.00 89 1009.4
20260505095450 15 60 0.0 0.0 0.00 0.00 0.00 89 1009.4
20260505095342 15 70 0.0 0.0 0.00 0.00 0.00 89 1009.5
20260505095129 15 65 0.0 0.0 0.00 0.00 0.00 89 1009.4
20260505095022 15 100 0.0 0.0 0.00 0.00 0.00 89 1009.4
20260505094915 15 45 0.0 0.0 0.00 0.00 0.00 89 1009.5
20260505094702 15 75 0.0 0.0 0.00 0.00 0.00 89 1009.5
20260505094556 15 165 0.0 0.0 0.00 0.00 0.00 88 1009.4
20260505094452 15 45 0.0 0.0 0.00 0.00 0.00 89 1009.5
20260505094343 15 75 0.0 0.0 0.00 0.00 0.00 88 1009.5
20260505094237 15 45 0.0 0.0 0.00 0.00 0.00 88 1009.4
20260505094131 15 85 0.0 0.0 0.00 0.00 0.00 88 1009.4
20260505094023 15 70 0.0 0.0 0.00 0.00 0.00 88 1009.5
20260505093917 15 55 0.0 0.0 0.00 0.00 0.00 88 1009.4
20260505093704 15 70 0.0 0.0 0.00 0.00 0.00 88 1009.3
20260505093558 15 55 0.0 0.0 0.00 0.00 0.00 88 1009.5
20260505093451 15 65 0.0 0.0 0.00 0.00 0.00 88 1009.6
20260505093239 15 80 0.0 0.0 0.00 0.00 0.00 88 1009.7
20260505093131 15 110 0.0 0.0 0.00 0.00 0.00 88 1009.5
20260505093026 15 85 0.0 0.0 0.00 0.00 0.00 88 1009.6
20260505092918 15 90 0.0 0.0 0.00 0.00 0.00 88 1009.5
20260505092559 15 115 0.0 0.0 0.00 0.00 0.00 88 1009.7
20260505092346 15 75 0.0 0.0 0.00 0.00 0.00 88 1009.7
20260505092240 15 50 0.0 0.0 0.00 0.00 0.00 88 1009.6
20260505092028 15 70 0.0 0.0 0.00 0.00 0.00 88 1009.6
20260505091920 15 100 0.0 0.0 0.00 0.00 0.00 88 1009.6
20260505091708 15 95 0.0 0.0 0.00 0.00 0.00 88 1009.8
20260505091600 15 85 0.0 0.0 0.00 0.00 0.00 99 1009.7
20260505091454 15 90 0.0 0.0 0.00 0.00 0.00 89 1009.7
20260505091348 15 110 0.0 0.0 0.00 0.00 0.00 89 1009.6
20260505091243 15 50 0.0 0.0 0.00 0.00 0.00 89 1009.7
20260505091134 15 130 0.0 0.0 0.00 0.00 0.00 89 1009.8
20260505090921 15 110 0.0 0.0 0.00 0.00 0.00 89 1009.7
20260505090815 15 120 0.0 0.0 0.00 0.00 0.00 89 1009.7
20260505090710 15 100 0.0 0.0 0.00 0.00 0.00 89 1009.7
20260505090602 15 70 0.0 0.0 0.00 0.00 0.00 89 1009.7
20260505090455 15 90 0.0 0.0 0.00 0.00 0.00 89 1009.6
20260505090243 15 220 0.0 0.0 0.00 0.00 0.00 90 1009.8
20260505090136 15 145 0.0 0.0 0.00 0.00 0.00 90 1009.6
20260505090031 15 75 0.0 0.0 0.00 0.00 0.00 90 1009.6
20260505085923 15 110 0.0 0.0 0.00 0.00 0.00 90 1009.8
20260505085710 15 45 0.0 0.0 0.00 0.00 0.00 90 1009.7
20260505085457 15 45 0.0 0.0 0.00 0.00 0.00 90 1009.7
20260505085350 15 60 0.0 0.0 0.00 0.00 0.00 90 1009.8
20260505085244 15 120 0.0 0.0 0.00 0.00 0.00 90 1009.7
20260505085140 14 120 0.0 0.0 0.00 0.00 0.00 90 1009.7
20260505084924 15 160 0.0 0.0 0.00 0.00 0.00 91 1009.8
20260505084711 40 150 0.0 0.0 0.00 0.00 0.00 91 1009.7
20260505084605 15 280 0.0 0.0 0.00 0.00 0.00 91 1009.8
20260505084352 15 60 0.0 0.0 0.00 0.00 0.00 91 1009.7